Time,TemperatureF,DewpointF,PressureIn,WindDirection,WindDirectionDegrees,WindSpeedMPH,WindSpeedGustMPH,Humidity,HourlyPrecipIn,Conditions,Clouds,dailyrainin,SoftwareType,DateUTC
2013-03-05 00:01:00,12.0,-2.0,-100.00,SW,220,3.0,8.0,50,-99.99,,,-99.99,,2013-03-05 07:01:00,
2013-03-05 00:11:00,13.0,-2.0,-100.00,SSW,205,5.0,14.0,51,-99.99,,,-99.99,,2013-03-05 07:11:00,
2013-03-05 00:21:00,13.0,-2.0,-100.00,SSW,210,5.0,19.0,50,-99.99,,,-99.99,,2013-03-05 07:21:00,
2013-03-05 00:31:00,14.0,-2.0,-100.00,West,275,6.0,12.0,49,-99.99,,,-99.99,,2013-03-05 07:31:00,
2013-03-05 00:41:00,13.0,-2.0,-100.00,West,280,6.0,16.0,50,-99.99,,,-99.99,,2013-03-05 07:41:00,
2013-03-05 00:51:00,13.0,-1.0,-100.00,NNW,335,10.0,17.0,52,-99.99,,,-99.99,,2013-03-05 07:51:00,
2013-03-05 01:02:00,13.0,-1.0,-100.00,NW,305,8.0,21.0,54,-99.99,,,-99.99,,2013-03-05 08:02:00,
2013-03-05 01:11:00,13.0,0.0,-100.00,WNW,285,8.0,16.0,55,-99.99,,,-99.99,,2013-03-05 08:11:00,
2013-03-05 01:21:00,13.0,0.0,-100.00,West,280,6.0,14.0,55,-99.99,,,-99.99,,2013-03-05 08:21:00,
2013-03-05 01:31:00,14.0,0.0,-100.00,NW,325,7.0,18.0,52,-99.99,,,-99.99,,2013-03-05 08:31:00,
2013-03-05 01:41:00,15.0,0.0,-100.00,North,0,7.0,19.0,49,-99.99,,,-99.99,,2013-03-05 08:41:00,
2013-03-05 01:52:00,15.0,-1.0,-100.00,NW,315,7.0,20.0,49,-99.99,,,-99.99,,2013-03-05 08:52:00,
2013-03-05 02:01:00,15.0,-1.0,-100.00,NW,320,6.0,22.0,49,-99.99,,,-99.99,,2013-03-05 09:01:00,
2013-03-05 02:11:00,15.0,-1.0,-100.00,NW,305,6.0,27.0,48,-99.99,,,-99.99,,2013-03-05 09:11:00,
2013-03-05 02:21:00,15.0,-1.0,-100.00,NW,315,7.0,20.0,47,-99.99,,,-99.99,,2013-03-05 09:21:00,
2013-03-05 02:31:00,16.0,-1.0,-100.00,NW,310,7.0,21.0,45,-99.99,,,-99.99,,2013-03-05 09:31:00,
2013-03-05 02:42:00,16.0,-2.0,-100.00,NW,305,7.0,22.0,45,-99.99,,,-99.99,,2013-03-05 09:42:00,
2013-03-05 02:52:00,16.0,-2.0,-100.00,NW,320,6.0,18.0,44,-99.99,,,-99.99,,2013-03-05 09:52:00,
2013-03-05 03:01:00,16.0,-2.0,-100.00,NNW,330,8.0,22.0,44,-99.99,,,-99.99,,2013-03-05 10:01:00,
2013-03-05 03:11:00,16.0,-2.0,-100.00,NNE,20,4.0,16.0,43,-99.99,,,-99.99,,2013-03-05 10:11:00,
2013-03-05 03:21:00,17.0,-2.0,-100.00,NW,305,13.0,22.0,43,-99.99,,,-99.99,,2013-03-05 10:21:00,
2013-03-05 03:32:00,17.0,-2.0,-100.00,NW,305,7.0,23.0,41,-99.99,,,-99.99,,2013-03-05 10:32:00,
2013-03-05 03:42:00,16.0,-3.0,-100.00,West,280,7.0,17.0,42,-99.99,,,-99.99,,2013-03-05 10:42:00,
2013-03-05 03:51:00,16.0,-2.0,-100.00,NNW,335,7.0,15.0,43,-99.99,,,-99.99,,2013-03-05 10:51:00,
2013-03-05 04:01:00,18.0,-3.0,-100.00,NW,310,9.0,20.0,39,-99.99,,,-99.99,,2013-03-05 11:01:00,
2013-03-05 04:11:00,17.0,-3.0,-100.00,North,355,8.0,24.0,39,-99.99,,,-99.99,,2013-03-05 11:11:00,
2013-03-05 04:22:00,18.0,-3.0,-100.00,North,0,7.0,22.0,37,-99.99,,,-99.99,,2013-03-05 11:22:00,
2013-03-05 04:32:00,18.0,-3.0,-100.00,NNE,15,11.0,23.0,37,-99.99,,,-99.99,,2013-03-05 11:32:00,
2013-03-05 04:42:00,18.0,-3.0,-100.00,NNE,30,11.0,27.0,37,-99.99,,,-99.99,,2013-03-05 11:42:00,
2013-03-05 04:52:00,19.0,-3.0,-100.00,NNW,335,11.0,24.0,36,-99.99,,,-99.99,,2013-03-05 11:52:00,
2013-03-05 05:02:00,20.0,-3.0,-100.00,North,0,11.0,29.0,34,-99.99,,,-99.99,,2013-03-05 12:02:00,
2013-03-05 05:11:00,20.0,-4.0,-100.00,North,0,9.0,22.0,33,-99.99,,,-99.99,,2013-03-05 12:11:00,
2013-03-05 05:22:00,20.0,-4.0,-100.00,North,5,8.0,21.0,32,-99.99,,,-99.99,,2013-03-05 12:22:00,
2013-03-05 05:32:00,21.0,-5.0,-100.00,NNW,330,9.0,17.0,31,-99.99,,,-99.99,,2013-03-05 12:32:00,
2013-03-05 05:42:00,21.0,-6.0,-100.00,North,0,7.0,20.0,30,-99.99,,,-99.99,,2013-03-05 12:42:00,
2013-03-05 05:52:00,21.0,-6.0,-100.00,NNE,30,11.0,21.0,29,-99.99,,,-99.99,,2013-03-05 12:52:00,
2013-03-05 06:02:00,22.0,-6.0,-100.00,North,5,8.0,21.0,28,-99.99,,,-99.99,,2013-03-05 13:02:00,
2013-03-05 06:11:00,21.0,-7.0,-100.00,NE,35,6.0,17.0,28,-99.99,,,-99.99,,2013-03-05 13:11:00,
2013-03-05 06:21:00,22.0,-7.0,-100.00,NE,45,9.0,23.0,26,-99.99,,,-99.99,,2013-03-05 13:21:00,
2013-03-05 06:32:00,24.0,-7.0,-100.00,ENE,70,6.0,25.0,25,-99.99,,,-99.99,,2013-03-05 13:32:00,
2013-03-05 06:42:00,23.0,-7.0,-100.00,ENE,75,11.0,22.0,25,-99.99,,,-99.99,,2013-03-05 13:42:00,
2013-03-05 06:52:00,23.0,-7.0,-100.00,NE,40,13.0,24.0,25,-99.99,,,-99.99,,2013-03-05 13:52:00,
2013-03-05 07:02:00,24.0,-7.0,-100.00,NE,45,9.0,24.0,24,-99.99,,,-99.99,,2013-03-05 14:02:00,
2013-03-05 07:11:00,24.0,-7.0,-100.00,NNE,15,9.0,24.0,24,-99.99,,,-99.99,,2013-03-05 14:11:00,
2013-03-05 07:21:00,24.0,-8.0,-100.00,North,0,7.0,24.0,24,-99.99,,,-99.99,,2013-03-05 14:21:00,
2013-03-05 07:32:00,24.0,-8.0,-100.00,NE,50,7.0,20.0,24,-99.99,,,-99.99,,2013-03-05 14:32:00,
2013-03-05 07:42:00,24.0,-8.0,-100.00,NW,310,4.0,19.0,23,-99.99,,,-99.99,,2013-03-05 14:42:00,
2013-03-05 07:52:00,25.0,-7.0,-100.00,North,0,7.0,19.0,23,-99.99,,,-99.99,,2013-03-05 14:52:00,
2013-03-05 08:01:00,25.0,-8.0,-100.00,North,5,12.0,20.0,22,-99.99,,,-99.99,,2013-03-05 15:01:00,
2013-03-05 08:11:00,26.0,-8.0,-100.00,North,0,6.0,25.0,22,-99.99,,,-99.99,,2013-03-05 15:11:00,
2013-03-05 08:21:00,26.0,-8.0,-100.00,NNW,335,9.0,22.0,22,-99.99,,,-99.99,,2013-03-05 15:21:00,
2013-03-05 08:32:00,26.0,-8.0,-100.00,NNE,20,9.0,23.0,21,-99.99,,,-99.99,,2013-03-05 15:32:00,
2013-03-05 08:42:00,26.0,-8.0,-100.00,North,350,7.0,19.0,21,-99.99,,,-99.99,,2013-03-05 15:42:00,
2013-03-05 08:51:00,27.0,-8.0,-100.00,SE,125,8.0,16.0,21,-99.99,,,-99.99,,2013-03-05 15:51:00,
2013-03-05 09:01:00,28.0,-7.0,-100.00,North,10,12.0,21.0,20,-99.99,,,-99.99,,2013-03-05 16:01:00,
2013-03-05 09:11:00,29.0,-7.0,-100.00,ESE,110,6.0,22.0,20,-99.99,,,-99.99,,2013-03-05 16:11:00,
2013-03-05 09:21:00,29.0,-7.0,-100.00,NE,50,12.0,29.0,20,-99.99,,,-99.99,,2013-03-05 16:21:00,
2013-03-05 09:32:00,30.0,-6.0,-100.00,North,0,9.0,21.0,20,-99.99,,,-99.99,,2013-03-05 16:32:00,
2013-03-05 09:42:00,30.0,-5.0,-100.00,ENE,60,10.0,27.0,20,-99.99,,,-99.99,,2013-03-05 16:42:00,
2013-03-05 09:51:00,31.0,-5.0,-100.00,ENE,65,9.0,21.0,20,-99.99,,,-99.99,,2013-03-05 16:51:00,
2013-03-05 10:01:00,33.0,-4.0,-100.00,ENE,65,7.0,25.0,19,-99.99,,,-99.99,,2013-03-05 17:01:00,
2013-03-05 10:11:00,34.0,-4.0,-100.00,North,0,4.0,24.0,19,-99.99,,,-99.99,,2013-03-05 17:11:00,
2013-03-05 10:21:00,35.0,-3.0,-100.00,NE,50,11.0,19.0,19,-99.99,,,-99.99,,2013-03-05 17:21:00,
2013-03-05 10:32:00,36.0,-2.0,-100.00,North,0,6.0,23.0,19,-99.99,,,-99.99,,2013-03-05 17:32:00,
2013-03-05 10:41:00,38.0,-1.0,-100.00,ENE,65,6.0,16.0,18,-99.99,,,-99.99,,2013-03-05 17:41:00,
2013-03-05 10:52:00,39.0,-1.0,-100.00,ENE,60,6.0,9.0,18,-99.99,,,-99.99,,2013-03-05 17:52:00,
2013-03-05 11:01:00,39.0,-1.0,-100.00,ENE,60,6.0,9.0,18,-99.99,,,-99.99,,2013-03-05 18:01:00,
2013-03-05 11:11:00,38.0,-2.0,-100.00,North,0,7.0,19.0,17,-99.99,,,-99.99,,2013-03-05 18:11:00,
2013-03-05 11:21:00,39.0,-2.0,-100.00,NNE,20,4.0,16.0,17,-99.99,,,-99.99,,2013-03-05 18:21:00,
2013-03-05 11:32:00,38.0,-3.0,-100.00,NE,50,4.0,14.0,17,-99.99,,,-99.99,,2013-03-05 18:32:00,
2013-03-05 11:42:00,39.0,-2.0,-100.00,East,100,4.0,12.0,17,-99.99,,,-99.99,,2013-03-05 18:42:00,
2013-03-05 11:52:00,38.0,-3.0,-100.00,WSW,245,6.0,19.0,16,-99.99,,,-99.99,,2013-03-05 18:52:00,
2013-03-05 12:01:00,37.0,-4.0,-100.00,SW,225,10.0,27.0,16,-99.99,,,-99.99,,2013-03-05 19:01:00,
2013-03-05 12:11:00,38.0,-3.0,-100.00,WNW,295,6.0,27.0,17,-99.99,,,-99.99,,2013-03-05 19:11:00,
2013-03-05 12:21:00,39.0,-2.0,-100.00,West,260,6.0,27.0,17,-99.99,,,-99.99,,2013-03-05 19:21:00,
2013-03-05 12:32:00,38.0,-3.0,-100.00,SW,220,5.0,15.0,17,-99.99,,,-99.99,,2013-03-05 19:32:00,
2013-03-05 12:42:00,39.0,-2.0,-100.00,North,10,4.0,14.0,17,-99.99,,,-99.99,,2013-03-05 19:42:00,
2013-03-05 12:51:00,39.0,-1.0,-100.00,SW,220,4.0,15.0,17,-99.99,,,-99.99,,2013-03-05 19:51:00,
2013-03-05 13:01:00,39.0,-1.0,-100.00,SW,220,4.0,15.0,17,-99.99,,,-99.99,,2013-03-05 20:01:00,
2013-03-05 13:11:00,36.0,-3.0,-100.00,WNW,295,8.0,28.0,18,-99.99,,,-99.99,,2013-03-05 20:11:00,
2013-03-05 13:21:00,36.0,-3.0,-100.00,NW,320,9.0,22.0,18,-99.99,,,-99.99,,2013-03-05 20:21:00,
2013-03-05 13:32:00,36.0,-1.0,-100.00,North,5,7.0,19.0,19,-99.99,,,-99.99,,2013-03-05 20:32:00,
2013-03-05 13:41:00,38.0,-1.0,-100.00,NW,310,11.0,19.0,19,-99.99,,,-99.99,,2013-03-05 20:41:00,
2013-03-05 13:52:00,37.0,0.0,-100.00,North,350,7.0,21.0,19,-99.99,,,-99.99,,2013-03-05 20:52:00,
2013-03-05 14:01:00,38.0,1.0,-100.00,NW,325,8.0,21.0,20,-99.99,,,-99.99,,2013-03-05 21:01:00,
2013-03-05 14:11:00,38.0,1.0,-100.00,NNE,15,7.0,17.0,20,-99.99,,,-99.99,,2013-03-05 21:11:00,
2013-03-05 14:21:00,39.0,1.0,-100.00,North,0,8.0,17.0,20,-99.99,,,-99.99,,2013-03-05 21:21:00,
2013-03-05 14:31:00,39.0,1.0,-100.00,NNW,345,7.0,24.0,20,-99.99,,,-99.99,,2013-03-05 21:31:00,
2013-03-05 14:41:00,38.0,1.0,-100.00,NNW,340,9.0,21.0,20,-99.99,,,-99.99,,2013-03-05 21:41:00,
2013-03-05 14:52:00,39.0,1.0,-100.00,NW,320,10.0,14.0,20,-99.99,,,-99.99,,2013-03-05 21:52:00,
2013-03-05 15:01:00,39.0,1.0,-100.00,NW,320,10.0,14.0,20,-99.99,,,-99.99,,2013-03-05 22:01:00,
2013-03-05 15:11:00,39.0,2.0,-100.00,WNW,290,4.0,16.0,20,-99.99,,,-99.99,,2013-03-05 22:11:00,
2013-03-05 15:21:00,39.0,2.0,-100.00,West,270,6.0,17.0,20,-99.99,,,-99.99,,2013-03-05 22:21:00,
2013-03-05 15:32:00,41.0,4.0,-100.00,NNE,15,5.0,11.0,20,-99.99,,,-99.99,,2013-03-05 22:32:00,
2013-03-05 15:41:00,40.0,3.0,-100.00,North,10,6.0,14.0,20,-99.99,,,-99.99,,2013-03-05 22:41:00,
2013-03-05 15:52:00,40.0,2.0,-100.00,NW,320,7.0,12.0,20,-99.99,,,-99.99,,2013-03-05 22:52:00,
2013-03-05 16:01:00,40.0,2.0,-100.00,NNW,330,4.0,14.0,20,-99.99,,,-99.99,,2013-03-05 23:01:00,
2013-03-05 16:11:00,40.0,2.0,-100.00,NW,315,4.0,17.0,20,-99.99,,,-99.99,,2013-03-05 23:11:00,
2013-03-05 16:21:00,40.0,2.0,-100.00,North,350,2.0,15.0,20,-99.99,,,-99.99,,2013-03-05 23:21:00,
2013-03-05 16:32:00,40.0,2.0,-100.00,NW,305,7.0,13.0,20,-99.99,,,-99.99,,2013-03-05 23:32:00,
2013-03-05 16:41:00,40.0,2.0,-100.00,NNW,330,4.0,13.0,19,-99.99,,,-99.99,,2013-03-05 23:41:00,
2013-03-05 16:52:00,39.0,1.0,-100.00,North,0,7.0,14.0,19,-99.99,,,-99.99,,2013-03-05 23:52:00,
2013-03-05 17:01:00,39.0,1.0,-100.00,NNW,335,6.0,12.0,19,-99.99,,,-99.99,,2013-03-06 00:01:00,
2013-03-05 17:11:00,38.0,0.0,-100.00,NW,320,6.0,14.0,20,-99.99,,,-99.99,,2013-03-06 00:11:00,
2013-03-05 17:21:00,37.0,0.0,-100.00,NNW,330,6.0,12.0,20,-99.99,,,-99.99,,2013-03-06 00:21:00,
2013-03-05 17:32:00,36.0,0.0,-100.00,North,0,3.0,6.0,21,-99.99,,,-99.99,,2013-03-06 00:32:00,
2013-03-05 17:41:00,36.0,0.0,-100.00,North,10,2.0,12.0,20,-99.99,,,-99.99,,2013-03-06 00:41:00,
2013-03-05 17:51:00,35.0,-1.0,-100.00,North,5,2.0,6.0,21,-99.99,,,-99.99,,2013-03-06 00:51:00,
2013-03-05 18:01:00,32.0,-2.0,-100.00,NNE,25,3.0,7.0,22,-99.99,,,-99.99,,2013-03-06 01:01:00,
2013-03-05 18:11:00,31.0,-2.0,-100.00,ESE,115,2.0,4.0,23,-99.99,,,-99.99,,2013-03-06 01:11:00,
2013-03-05 18:21:00,30.0,-2.0,-100.00,East,90,1.0,4.0,25,-99.99,,,-99.99,,2013-03-06 01:21:00,
2013-03-05 18:31:00,28.0,-1.0,-100.00,SE,130,2.0,4.0,26,-99.99,,,-99.99,,2013-03-06 01:31:00,
2013-03-05 18:41:00,27.0,-1.0,-100.00,SSE,160,1.0,2.0,29,-99.99,,,-99.99,,2013-03-06 01:41:00,
2013-03-05 18:51:00,26.0,-1.0,-100.00,SSE,150,2.0,4.0,31,-99.99,,,-99.99,,2013-03-06 01:51:00,
2013-03-05 19:01:00,25.0,0.0,-100.00,SE,140,1.0,2.0,33,-99.99,,,-99.99,,2013-03-06 02:01:00,
2013-03-05 19:11:00,24.0,1.0,-100.00,SSW,210,2.0,5.0,34,-99.99,,,-99.99,,2013-03-06 02:11:00,
2013-03-05 19:21:00,24.0,1.0,-100.00,SE,145,1.0,4.0,37,-99.99,,,-99.99,,2013-03-06 02:21:00,
2013-03-05 19:31:00,23.0,1.0,-100.00,SE,135,1.0,4.0,38,-99.99,,,-99.99,,2013-03-06 02:31:00,
2013-03-05 19:41:00,23.0,2.0,-100.00,WSW,250,2.0,4.0,39,-99.99,,,-99.99,,2013-03-06 02:41:00,
2013-03-05 19:52:00,23.0,2.0,-100.00,SSE,165,1.0,4.0,39,-99.99,,,-99.99,,2013-03-06 02:52:00,
2013-03-05 20:01:00,21.0,1.0,-100.00,SE,135,1.0,2.0,41,-99.99,,,-99.99,,2013-03-06 03:01:00,
2013-03-05 20:11:00,21.0,2.0,-100.00,SW,235,1.0,4.0,42,-99.99,,,-99.99,,2013-03-06 03:11:00,
2013-03-05 20:21:00,21.0,2.0,-100.00,South,190,1.0,5.0,43,-99.99,,,-99.99,,2013-03-06 03:21:00,
2013-03-05 20:31:00,20.0,2.0,-100.00,East,85,1.0,3.0,44,-99.99,,,-99.99,,2013-03-06 03:31:00,
2013-03-05 20:41:00,20.0,2.0,-100.00,West,280,2.0,4.0,44,-99.99,,,-99.99,,2013-03-06 03:41:00,
2013-03-05 20:52:00,20.0,2.0,-100.00,SSW,205,4.0,6.0,44,-99.99,,,-99.99,,2013-03-06 03:52:00,
2013-03-05 21:02:00,21.0,2.0,-100.00,SE,145,1.0,5.0,44,-99.99,,,-99.99,,2013-03-06 04:02:00,
2013-03-05 21:11:00,20.0,2.0,-100.00,SE,125,2.0,4.0,45,-99.99,,,-99.99,,2013-03-06 04:11:00,
2013-03-05 21:21:00,20.0,2.0,-100.00,South,185,0.0,5.0,45,-99.99,,,-99.99,,2013-03-06 04:21:00,
2013-03-05 21:32:00,20.0,3.0,-100.00,WNW,285,1.0,2.0,47,-99.99,,,-99.99,,2013-03-06 04:32:00,
2013-03-05 21:41:00,20.0,4.0,-100.00,ESE,115,1.0,4.0,47,-99.99,,,-99.99,,2013-03-06 04:41:00,
2013-03-05 21:51:00,21.0,3.0,-100.00,ESE,115,2.0,4.0,45,-99.99,,,-99.99,,2013-03-06 04:51:00,
2013-03-05 22:01:00,21.0,4.0,-100.00,SE,140,3.0,5.0,46,-99.99,,,-99.99,,2013-03-06 05:01:00,
2013-03-05 22:11:00,22.0,4.0,-100.00,South,185,3.0,4.0,45,-99.99,,,-99.99,,2013-03-06 05:11:00,
2013-03-05 22:22:00,22.0,4.0,-100.00,South,185,3.0,4.0,45,-99.99,,,-99.99,,2013-03-06 05:22:00,
2013-03-05 22:32:00,22.0,4.0,-100.00,South,185,3.0,4.0,45,-99.99,,,-99.99,,2013-03-06 05:32:00,
2013-03-05 22:40:00,22.0,3.0,-100.00,WSW,245,1.0,4.0,44,-99.99,,,-99.99,,2013-03-06 05:40:00,
2013-03-05 22:42:00,22.0,4.0,-100.00,South,185,3.0,4.0,45,-99.99,,,-99.99,,2013-03-06 05:42:00,
2013-03-05 22:52:00,22.0,3.0,-100.00,WSW,245,1.0,4.0,44,-99.99,,,-99.99,,2013-03-06 05:52:00,
2013-03-05 23:02:00,22.0,3.0,-100.00,WSW,245,1.0,4.0,44,-99.99,,,-99.99,,2013-03-06 06:02:00,
2013-03-05 23:11:00,22.0,3.0,-100.00,WSW,245,1.0,4.0,44,-99.99,,,-99.99,,2013-03-06 06:11:00,
2013-03-05 23:22:00,22.0,3.0,-100.00,WSW,245,1.0,4.0,44,-99.99,,,-99.99,,2013-03-06 06:22:00,
2013-03-05 23:32:00,22.0,3.0,-100.00,WSW,245,1.0,4.0,44,-99.99,,,-99.99,,2013-03-06 06:32:00,